[[{"header":{"parameterUnit":"m.s-1","parameterCategory":1,"la1":30.2991,"la2":30.254,"lo1":-89.0895,"lo2":-89.0444,"dy":0.0017,"dx":0.0017,"nx":28,"ny":28,"refTime":"2025-08-16T21:00:00:Z","depth":0,"parameterNumber":2,"parameterNumberName":"U-component_of_WINDS"},"data":[0,0,0,0,0,0,0,0,0,0,0,0,0,0,0,0,0,0,0,0,0,0,0,0,0,0,0,0,0,0,0,0,0,0,0,0,0,0,0,0,0,0,0,0,0,0,0,0,0,0,0,0,0,0,0,0,0,0,-0.6159,-0.6157,0,-0.5993,-0.5991,-0.5989,-0.5892,-0.5891,-0.5891,-0.589,-0.5721,-0.5717,-0.5713,0,0,0,0,0,0,0,0,0,0,0,0,0,-0.6398,-0.6394,-0.6159,-0.6157,-0.6155,-0.5993,-0.5991,-0.5989,-0.5892,-0.5891,-0.5891,-0.589,-0.5722,-0.5717,-0.5712,0,0,0,0,0,0,0,0,0,0,0,0,0,-0.6269,-0.6393,-0.616,-0.6087,-0.6079,-0.5994,-0.5991,-0.5988,-0.5892,-0.5891,-0.589,-0.589,-0.5724,-0.5718,-0.5712,-0.5685,0,0,-0.5693,-0.569,0,0,0,0,0,0,0,0,-0.6277,-0.6261,-0.61,-0.6092,-0.6083,-0.5962,-0.6013,-0.5887,-0.5892,-0.5963,-0.589,-0.589,-0.5802,-0.5789,-0.5759,-0.5677,-0.567,-0.5692,-0.5688,-0.5686,-0.5684,0,0,0,0,0,0,0,-0.6286,-0.6267,-0.6093,-0.6098,-0.6087,-0.6065,-0.6046,-0.5988,-0.5888,-0.5957,-0.5949,-0.5931,-0.5797,-0.5765,-0.5754,-0.5668,-0.5692,-0.5687,-0.5683,-0.568,-0.5561,-0.5562,0,0,0,0,0,0,-0.6306,-0.6275,-0.6099,-0.6088,-0.618,-0.6061,-0.604,-0.6002,-0.5888,-0.587,-0.5931,-0.5927,-0.5776,-0.5762,-0.5748,-0.5712,-0.5686,-0.568,-0.5676,-0.5561,-0.5561,-0.5562,0,0,0,0,0,0,-0.6311,-0.6291,-0.6105,-0.618,-0.6155,-0.6057,-0.6016,-0.5999,-0.5967,-0.5869,-0.5851,-0.5917,-0.5775,-0.5757,-0.5703,-0.5705,-0.5677,-0.5671,-0.556,-0.5561,-0.5562,-0.5639,0,0,0,0,0,0,-0.6319,-0.6294,-0.6281,-0.618,-0.6151,-0.6062,-0.6016,-0.5996,-0.5956,-0.5949,-0.5851,-0.5834,-0.5773,-0.5713,-0.5697,-0.5696,-0.5667,-0.5559,-0.556,-0.5561,-0.5636,-0.5643,-0.5649,0,0,0,0,0,-0.6328,-0.6309,-0.6281,-0.626,-0.6133,-0.6062,-0.6045,-0.5975,-0.5957,-0.5945,-0.5883,-0.5837,-0.5708,-0.5708,-0.5689,-0.5687,-0.5559,-0.556,-0.5561,-0.5633,-0.5642,-0.5648,0,0,0,0,0,0,-0.6411,-0.6294,-0.6262,-0.621,-0.6147,-0.6045,-0.6027,-0.5985,-0.5926,-0.5921,-0.5837,-0.5816,-0.5771,-0.5723,-0.5725,-0.5658,-0.5629,-0.5626,-0.569,-0.5697,-0.5703,-0.5715,-0.5661,0,0,0,0,0,-0.6424,-0.6375,-0.6275,-0.6239,-0.6209,-0.6125,-0.6091,-0.6043,-0.5974,-0.5947,-0.588,-0.5816,-0.5761,-0.5727,-0.567,-0.563,-0.5609,-0.562,-0.5626,-0.5631,-0.563,-0.5609,-0.5613,-0.5566,-0.5566,-0.5566,0,0,-0.6449,-0.6379,-0.6352,-0.6254,-0.62,-0.6153,-0.6102,-0.6053,-0.6018,-0.5939,-0.5884,-0.5835,-0.5758,-0.5711,-0.5687,-0.567,-0.5639,-0.5633,-0.5638,-0.5633,-0.561,-0.5615,-0.5619,-0.5567,-0.5567,-0.5567,0,0,-0.647,-0.6412,-0.6376,-0.6324,-0.6243,-0.6187,-0.618,-0.6086,-0.605,-0.5994,-0.5935,-0.5893,-0.5799,-0.5748,-0.5709,-0.5719,-0.5676,-0.5703,-0.5734,-0.5715,-0.5718,-0.5721,-0.5726,-0.5729,-0.5702,-0.5702,-0.5702,0,-0.6511,-0.6436,-0.6364,-0.6319,-0.6279,-0.6208,-0.6173,-0.6126,-0.6031,-0.6006,-0.5988,-0.5873,-0.5815,-0.5758,-0.5761,-0.5732,-0.5722,-0.5712,-0.5724,-0.5726,-0.5727,-0.5731,-0.5733,-0.5706,-0.5706,-0.5705,-0.5705,0,-0.6492,-0.6442,-0.6424,-0.6335,-0.6293,-0.6254,-0.6178,-0.6145,-0.6103,-0.605,-0.5997,-0.5927,-0.5857,-0.584,-0.5797,-0.5778,-0.577,-0.5739,-0.5708,-0.5737,-0.5739,-0.574,-0.5712,-0.571,-0.5709,-0.5708,0,0,-0.6557,-0.6433,-0.6427,-0.6388,-0.6296,-0.6256,-0.6216,-0.6149,-0.6123,-0.6062,-0.6027,-0.5953,-0.5925,-0.5882,-0.5834,-0.5817,-0.5832,-0.5788,-0.5785,-0.58,-0.5809,-0.5833,-0.5835,-0.5804,-0.5804,-0.5804,-0.5816,0,-0.6565,-0.6488,-0.6424,-0.6372,-0.6326,-0.6261,-0.6226,-0.6168,-0.6119,-0.6075,-0.6021,-0.5971,-0.5937,-0.5912,-0.5892,-0.5834,-0.5832,-0.5832,-0.5772,-0.5771,-0.5793,-0.5836,-0.5859,-0.5874,-0.5816,-0.5816,-0.5816,0,-0.6563,-0.6506,-0.6449,-0.6366,-0.6345,-0.6314,-0.625,-0.6208,-0.6142,-0.6108,-0.6064,-0.6014,-0.5971,-0.5947,-0.5888,-0.589,-0.5863,-0.5831,-0.583,-0.5821,-0.5795,-0.5829,-0.5877,-0.5879,-0.5817,-0.5817,-0.5817,0,-0.6618,-0.6527,-0.6482,-0.645,-0.6352,-0.6333,-0.6291,-0.6224,-0.619,-0.6134,-0.6111,-0.6052,-0.6019,-0.5975,-0.5913,-0.59,-0.5862,-0.5831,-0.5834,-0.5836,-0.5827,-0.5828,-0.5872,-0.581,-0.581,-0.581,-0.581,0,-0.6633,-0.6601,-0.6506,-0.6478,-0.6442,-0.6371,-0.6338,-0.6291,-0.6233,-0.6197,-0.6138,-0.6105,-0.6024,-0.5983,-0.5934,-0.5895,-0.5881,-0.5854,-0.5841,-0.5858,-0.5862,-0.5838,-0.5836,-0.5811,-0.5811,-0.5811,-0.5811,0,-0.6687,-0.6621,-0.6568,-0.6481,-0.6459,-0.6436,-0.6362,-0.6335,-0.6285,-0.6241,-0.6226,-0.6148,-0.6097,-0.6031,-0.5959,-0.5926,-0.5893,-0.5873,-0.5915,-0.5908,-0.5915,-0.5916,-0.5944,-0.5945,-0.5884,-0.5885,-0.5885,0,-0.67,-0.6675,-0.6586,-0.6558,-0.6519,-0.6473,-0.6439,-0.637,-0.6336,-0.6262,-0.6245,-0.6189,-0.6141,-0.6064,-0.6001,-0.5947,-0.5926,-0.594,-0.5917,-0.5937,-0.5927,-0.5929,-0.5928,-0.5945,-0.5946,-0.5947,-0.5948,0,-0.6732,-0.6703,-0.6654,-0.6596,-0.6556,-0.6507,-0.6455,-0.6436,-0.6357,-0.6323,-0.6271,-0.6234,-0.6163,-0.611,-0.6048,-0.6007,-0.5965,-0.5956,-0.5954,-0.5971,-0.5997,-0.5985,-0.5931,-0.5955,-0.5954,-0.5954,-0.5953,-0.5953,-0.6766,-0.6742,-0.6677,-0.6626,-0.6581,-0.6536,-0.6506,-0.6455,-0.641,-0.6346,-0.6309,-0.6259,-0.6199,-0.6112,-0.6074,-0.6035,-0.6019,-0.6015,-0.6014,-0.6014,-0.6021,-0.6005,-0.6024,-0.6023,-0.6023,-0.6023,-0.6023,0,-0.6796,-0.6752,-0.6707,-0.6637,-0.6599,-0.6564,-0.6507,-0.6477,-0.6434,-0.6381,-0.6336,-0.6279,-0.6229,-0.6165,-0.6111,-0.6093,-0.6072,-0.6081,-0.6081,-0.6073,-0.6038,-0.6046,-0.6098,-0.6098,-0.6098,-0.6098,-0.6098,-0.6098,-0.6806,-0.6764,-0.6728,-0.6665,-0.6621,-0.6572,-0.6543,-0.6502,-0.646,-0.6398,-0.6357,-0.6316,-0.6259,-0.6202,-0.6155,-0.6138,-0.6121,-0.6136,-0.6113,-0.6082,-0.6075,-0.6068,-0.6075,-0.6133,-0.6133,-0.6151,-0.6151,-0.6151]},{"header":{"parameterUnit":"m.s-1","parameterCategory":1,"la1":30.2991,"la2":30.254,"lo1":-89.0895,"lo2":-89.0444,"dy":0.0017,"dx":0.0017,"nx":28,"ny":28,"refTime":"2025-08-16T21:00:00:Z","depth":0,"parameterNumber":3,"parameterNumberName":"V-component_of_WINDS"},"data":[0,0,0,0,0,0,0,0,0,0,0,0,0,0,0,0,0,0,0,0,0,0,0,0,0,0,0,0,0,0,0,0,0,0,0,0,0,0,0,0,0,0,0,0,0,0,0,0,0,0,0,0,0,0,0,0,0,0,2.363,2.363,0,2.362,2.362,2.362,2.3627,2.3628,2.3628,2.3628,2.3617,2.3616,2.3616,0,0,0,0,0,0,0,0,0,0,0,0,0,2.3655,2.3654,2.363,2.363,2.363,2.362,2.362,2.362,2.3627,2.3628,2.3628,2.3628,2.3617,2.3616,2.3616,0,0,0,0,0,0,0,0,0,0,0,0,0,2.3644,2.3654,2.363,2.3632,2.3633,2.362,2.362,2.362,2.3627,2.3628,2.3628,2.3629,2.3617,2.3616,2.3616,2.36,0,0,2.3613,2.3612,0,0,0,0,0,0,0,0,2.3645,2.3643,2.3632,2.3632,2.3632,2.3625,2.3624,2.3613,2.3627,2.3629,2.3628,2.3629,2.3619,2.3618,2.3615,2.3599,2.3599,2.3613,2.3612,2.3612,2.3611,0,0,0,0,0,0,0,2.3646,2.3644,2.3626,2.3632,2.3632,2.3634,2.3633,2.3622,2.3622,2.3629,2.363,2.3628,2.3619,2.3616,2.3615,2.3599,2.3613,2.3612,2.3611,2.3611,2.357,2.3569,0,0,0,0,0,0,2.3646,2.3644,2.3626,2.3626,2.364,2.3633,2.3632,2.3627,2.3622,2.3621,2.3628,2.3629,2.3617,2.3616,2.3615,2.3596,2.3612,2.3611,2.361,2.357,2.3569,2.3569,0,0,0,0,0,0,2.3647,2.3645,2.3627,2.3635,2.3633,2.3632,2.3627,2.3627,2.3623,2.3621,2.3621,2.3625,2.3618,2.3616,2.3604,2.3596,2.361,2.361,2.3571,2.357,2.3569,2.3559,0,0,0,0,0,0,2.3647,2.3645,2.3639,2.3635,2.3633,2.3616,2.3626,2.3626,2.3622,2.3623,2.3618,2.3617,2.3618,2.3605,2.3603,2.3595,2.3609,2.3571,2.357,2.3569,2.356,2.3558,2.3556,0,0,0,0,0,2.3648,2.3637,2.3639,2.3637,2.3626,2.3616,2.3615,2.3616,2.3621,2.3616,2.3614,2.3618,2.3597,2.3604,2.3601,2.3593,2.3572,2.3571,2.3569,2.3561,2.3559,2.3556,0,0,0,0,0,0,2.364,2.3636,2.3639,2.3625,2.3621,2.3617,2.361,2.3613,2.3607,2.3608,2.3609,2.3608,2.3595,2.3593,2.36,2.3578,2.3585,2.3584,2.358,2.3577,2.3575,2.3577,2.3608,0,0,0,0,0,2.3636,2.3629,2.3626,2.3615,2.3612,2.3611,2.3607,2.3608,2.3604,2.3602,2.3599,2.3594,2.3587,2.3582,2.3575,2.356,2.3559,2.3553,2.3551,2.3549,2.3548,2.354,2.3537,2.3565,2.3565,2.3565,0,0,2.3629,2.3626,2.3621,2.3613,2.361,2.3602,2.361,2.3601,2.3595,2.3601,2.3589,2.3587,2.3581,2.3568,2.3561,2.3565,2.354,2.3548,2.3546,2.3546,2.3538,2.3536,2.3533,2.3564,2.3564,2.3564,0,0,2.3612,2.3609,2.3599,2.3596,2.3591,2.359,2.3588,2.3584,2.3583,2.3571,2.3575,2.3567,2.3554,2.355,2.3546,2.3527,2.3531,2.3525,2.3515,2.3507,2.3505,2.3503,2.3497,2.3494,2.3523,2.3523,2.3523,0,2.3604,2.3593,2.3594,2.3585,2.3581,2.3585,2.3575,2.3572,2.3564,2.3561,2.3566,2.3549,2.3546,2.3531,2.3527,2.3523,2.352,2.3526,2.3505,2.3503,2.3502,2.3495,2.3493,2.3523,2.3523,2.3523,2.3523,0,2.3583,2.3575,2.3567,2.3561,2.3556,2.3546,2.3546,2.354,2.3542,2.354,2.3528,2.3524,2.3517,2.3513,2.3514,2.3498,2.3501,2.3505,2.3513,2.3498,2.3492,2.349,2.3522,2.3522,2.3522,2.3522,0,0,2.3562,2.3555,2.3552,2.3549,2.3544,2.3537,2.3528,2.352,2.3516,2.351,2.3502,2.3491,2.3494,2.349,2.3491,2.3484,2.3469,2.3489,2.3488,2.3486,2.3452,2.3449,2.3446,2.3471,2.347,2.347,2.3452,0,2.3545,2.3529,2.3529,2.3514,2.3506,2.351,2.3501,2.3497,2.3495,2.3488,2.3486,2.3479,2.3484,2.3481,2.3474,2.3472,2.3462,2.3473,2.3463,2.3463,2.3465,2.3443,2.344,2.3424,2.345,2.345,2.3449,0,2.3524,2.3518,2.3502,2.3497,2.3494,2.3486,2.3479,2.3473,2.3467,2.3467,2.3461,2.3463,2.3453,2.346,2.3447,2.3454,2.345,2.3448,2.3447,2.3447,2.3456,2.3443,2.3419,2.3417,2.3446,2.3446,2.3446,0,2.351,2.3498,2.3487,2.3484,2.3478,2.3473,2.347,2.3465,2.346,2.3454,2.3451,2.3443,2.3439,2.3433,2.3432,2.3438,2.3418,2.3426,2.3417,2.3417,2.3414,2.3414,2.3389,2.341,2.341,2.341,2.341,0,2.3492,2.3482,2.3481,2.3474,2.3463,2.3463,2.3452,2.345,2.3445,2.3438,2.344,2.3433,2.3432,2.3425,2.3424,2.3412,2.341,2.3409,2.341,2.341,2.341,2.3407,2.3409,2.3409,2.3409,2.341,2.341,0,2.3476,2.3474,2.3462,2.3457,2.3456,2.3448,2.3444,2.3437,2.3435,2.3426,2.3424,2.3421,2.3412,2.3411,2.34,2.34,2.3386,2.3387,2.3388,2.3389,2.3381,2.3382,2.3354,2.335,2.3373,2.3372,2.3372,0,2.3464,2.3457,2.3451,2.3446,2.3443,2.3436,2.3431,2.343,2.3425,2.3418,2.3412,2.3404,2.3397,2.3383,2.338,2.3372,2.3373,2.3364,2.3372,2.3372,2.3373,2.3374,2.3373,2.3363,2.3362,2.3362,2.3362,0,2.3445,2.3444,2.3438,2.343,2.3424,2.3419,2.3413,2.3409,2.3408,2.3402,2.3393,2.3388,2.3377,2.3369,2.3361,2.3357,2.3359,2.3359,2.3357,2.3357,2.3359,2.3358,2.3385,2.336,2.336,2.336,2.3361,2.3361,2.3431,2.3425,2.342,2.3412,2.3407,2.3402,2.3395,2.3393,2.3385,2.3377,2.3377,2.3367,2.3362,2.3351,2.3347,2.3339,2.3342,2.3339,2.3338,2.3338,2.3337,2.3359,2.3338,2.3338,2.3338,2.3338,2.3338,0,2.3412,2.3409,2.3402,2.3394,2.3387,2.339,2.3383,2.3378,2.3369,2.3364,2.3357,2.3347,2.3339,2.3335,2.3326,2.3321,2.3322,2.3319,2.332,2.3319,2.3335,2.3338,2.3318,2.3318,2.3318,2.3318,2.3318,2.3318,2.3402,2.3391,2.339,2.3376,2.3373,2.3364,2.336,2.3355,2.3351,2.3339,2.3332,2.333,2.3325,2.3316,2.3308,2.3307,2.3304,2.3301,2.33,2.3316,2.3318,2.332,2.3322,2.33,2.33,2.3285,2.3285,2.3285]}]]